Regional Weather Roundup
Issued by NWS Wakefield, VA

Home | Current Version | Previous Version | Graphics & Text | Print | Product List | Glossary On
Versions: 1 2 3 4 5 6 7 8 9 10 11 12 13 14 15 16 17 18 19 20 21 22 23 24 25 26 27
000
ASUS41 KAKQ 271115
RWRAKQ

REGIONAL WEATHER ROUNDUP
NATIONAL WEATHER SERVICE WAKEFIELD VA
600 AM EST MON FEB 27 2017

Note: "fair" indicates few or no clouds below 12,000 feet with no
significant weather and/or obstructions to visibility. * = Denotes
station may not report precipitation (e.g., rain,snow,etc.),
thunder or fog.

VAZ042-051-052>054-056-271200-
NORTHERN VIRGINIA

CITY           SKY/WX    TMP DP  RH WIND       PRES   REMARKS
WASH NATIONAL  MOCLDY    37  32  82 VRB3      30.38R
DULLES         PTCLDY    25  20  81 CALM      30.36R
FORT BELVOIR   CLOUDY    29  25  84 CALM      30.38R
QUANTICO       PTCLDY    32  30  92 NW8       30.39R
FREDERICKSBRG* CLEAR     29  26  90 CALM      30.38R
STAFFORD*      PTCLDY    28  28  99 CALM      30.42R
WARRENTON      CLOUDY    28  24  84 CALM      30.38R
CULPEPER*      CLOUDY    28  24  85 CALM      30.39R
MANASSAS*      CLOUDY    26  24  92 SW3       30.38R
LEESBURG*      CLOUDY    28  27  93 MISG      30.37R
WINCHESTER     CLOUDY    32  18  55 W6        30.33R
FRONT ROYAL*   CLOUDY    32  19  59 S3        30.33R
LURAY*         CLOUDY    32  27  80 CALM      30.34R
$$

VAZ048-049-060>072-079>083-271200-
CENTRAL AND SOUTH CENTRAL VIRGINIA

CITY           SKY/WX    TMP DP  RH WIND       PRES   REMARKS
RICHMOND       PTCLDY    31  28  89 SE6       30.38R
CHESTERFIELD*  FAIR      30  10  43 CALM      30.39R
PETERSBURG*    MOCLDY    28  27  94 CALM      30.39S
HANOVER        CLEAR     27  23  85 CALM      30.39R
TAPPAHANNOCK*  CLEAR     30  29  99 CALM      30.39S
QUINTON*       FAIR      30  30 100 SE5       30.39R
CHARLOTTSVILLE CLEAR     29  20  69 W3        30.37R
GORDONSVILLE*  NOT AVBL
ORANGE*        PTCLDY    28  23  80 CALM      30.39R
LOUISA*        CLEAR     28  25  86 CALM      30.35S
BUMPASS*       FAIR      27  24  89 CALM      30.36R
FARMVILLE*     PTCLDY    26  26  98 CALM      30.36R
CREWE*         NOT AVBL
FORT PICKETT*  NOT AVBL
CHASE CITY*    NOT AVBL
CLARKSVILLE*   NOT AVBL
SOUTH HILL*    PTCLDY    32  30  93 CALM      30.43R
LAWRENCEVILLE* NOT AVBL
EMPORIA*       PTCLDY    28  27  93 CALM      30.41R
$$

VAZ088>098-271200-
SOUTHEAST VIRGINIA

CITY           SKY/WX    TMP DP  RH WIND       PRES   REMARKS
NORFOLK        CLEAR     40  36  86 S5        30.40R
VIRGINIA BEACH CLEAR     34  30  85 CALM      30.40R
NORFOLK NAVAL  MOCLDY    42  37  82 S7        30.42R
WEST POINT*    PTCLDY    31  29  94 CALM      30.42R
SALUDA*        NOT AVBL
NEWPORT NEWS   CLEAR     33  33 100 CALM      30.40S FOG
LANGLEY AFB    MOCLDY    42  39  90 SW5       30.40R
FORT EUSTIS    CLOUDY    38  35  86 SE3       30.38R
WILLIAMSBURG*  CLEAR     37  36  93 CALM      30.41R
HR EXEC AP*    FAIR      30  27  86 CALM      30.39R
FRANKLIN*      PTCLDY    31  29  92 CALM      30.41R
US460-WAKEFLD  PTCLDY    31  30  96 CALM      30.40R
$$

VAZ020-022-025-037-045-271200-
WEST CENTRAL AND SOUTHWEST VIRGINIA

CITY           SKY/WX    TMP DP  RH WIND       PRES   REMARKS
STAUNTON*      PTCLDY    23  19  83 CALM      30.37R
WAYNESBORO*    NOT AVBL
HOT SPRINGS VA CLOUDY    36   3  25 W8        30.27R
LYNCHBURG      MOCLDY    30  20  66 CALM      30.36R
DANVILLE       CLOUDY    31  28  89 CALM      30.35R
SOUTH BOSTON*  FAIR      29  28  96 CALM      30.35S
MARTINSVILLE   CLOUDY    30  25  80 CALM      30.39R
ROANOKE        CLOUDY    32  25  75 W3        30.38R
BLACKSBURG     CLOUDY    32  23  70 CALM      30.36R
DUBLIN*        MOCLDY    32  24  72 CALM      30.35R
MARION*        MOCLDY    32  23  70 CALM      30.34R
HILLSVILLE*    CLOUDY    36  17  45 CALM      30.29R
RICHLANDS*     PTSUNNY   39  14  35 CALM      30.28S
WISE*          CLOUDY    43  10  26 CALM      30.28R
ABINGDON*      CLOUDY    37  23  57 E9        30.28R
$$

MDZ021>025-VAZ099-100-271200-
SOUTHERN MARYLAND AND THE DELMARVA PENINSULA

CITY           SKY/WX    TMP DP  RH WIND       PRES   REMARKS
PATUXENT RIVER PTCLDY    31  31 100 SE3       30.38S
BAY BRIDGE APT CLEAR     37  36  93 S6        30.38S
LEONARDTOWN    PTCLDY    32  32 100 CALM      30.40R
DOVER          CLEAR     32  25  75 S7        30.38F
GEORGETOWN     CLEAR     29  24  82 CALM      30.41R
EASTON         CLEAR     30  26  86 CALM      30.42S
CAMBRIDGE      CLEAR     30  28  93 SE5       30.39S
SALISBURY      CLEAR     27  25  92 CALM      30.41R
OCEAN CITY     CLEAR     29  25  85 CALM      30.42R
WALLOPS ISLAND CLEAR     39  34  82 S7        30.42R
ACCOMACK*      CLEAR     39  36  89 SE6       30.41R
$$

NCZ012>017-030>032-271200-
NORTH CENTRAL AND EASTERN NORTH CAROLINA

CITY           SKY/WX    TMP DP  RH WIND       PRES   REMARKS
ROANOKE RAPIDS FAIR      30  30 100 CALM      30.39S
RALEIGH        MOCLDY    42  22  44 SE10      30.34F
ELIZABETH CITY CLEAR     41  35  79 SE5       30.42R
AHOSKIE*         N/A     29  27  89 CALM      30.41R
EDENTON*       CLEAR     37  35  90 CALM      30.42R
CURRITUCK*     CLEAR     38  38 100 CALM      30.42R
KILL DEVIL HLS NOT AVBL
MANTEO         CLEAR     36  36  99 CALM      30.43R
CAPE HATTERAS  CLEAR     45  37  73 NE5       30.40S
TARBORO*       NOT AVBL
GOLDSBORO      PTCLDY    34  29  80 E5        30.37R
WASHINGTON     CLEAR     34  30  87 CALM      30.41R
GREENVILLE     CLEAR     32  32 100 CALM      30.40R
NEW BERN       PTCLDY    34  33  96 CALM      30.42R
WILMINGTON     PTCLDY    32  32 100 CALM      30.39R
$$

VAZ048-271200-
ELSEWHERE

CITY           SKY/WX    TMP DP  RH WIND       PRES   REMARKS
HARRISBURG PA  CLOUDY    32  24  72 E5        30.34S
BALTIMORE      PTCLDY    27  23  85 CALM      30.37S
ANNAPOLIS      CLEAR     36  33  89 CALM      30.38R
ANDREWS AFB    PTCLDY    35  32  90 S5        30.36R
PHILADELPHIA   MOCLDY    34  25  69 SW3       30.39S
HENDERSON NC   CLEAR     37  21  52 SE6       30.35F
GREENSBORO     MOCLDY    36  24  62 W5        30.35R
ROCKY MOUNT    CLEAR     30  29  96 CALM      30.39R
$$

VAZ100-271200-
MARINE

STATION/POSITION TIME  TEMP    WIND        PRES    WAVE   SWELL
                       AIR SEA DIR/SP/G            HT/PER HT/PER
                 (UTC) (F)     (DEG/KT/KT) (MB)    (FT/S) (FT/S)
CAPE MAY NJ      1048   38 44  160/  3/  5 1029.4R
LEWES DE         1048   37 45  170/  5/  5 1029.6R
OCEAN-CITY-INLET 1048   42 49  210/  5/  7 1030.4R
WACHAPREAGUE VA  1048   43 50  170/  5/  6 1029.8R
THOMAS POINT MD  1100   44 44  170/ 13/ 15   N/A
GOOSES REEF MD   1100   44 45  170/ 12/ 14 1029.2    2/ 3
COVE POINT MD    1048   43     190/ 12/ 13 1029.3S
SOLOMONS ISLAND  1048   41 45  140/  5/  5   N/A
BISHOPS HEAD MD  1048   44 46  150/ 12/ 13 1029.4R
PINEY POINT MD   1048          180/  8/  9   N/A
POTOMAC MD       1100   44 45  190/  6/ 10 1028.4    1
CAMBRIDGE MD     1048   37 47  150/  2/  4 1028.4R
LEWISETTA VA     1048   40 49  210/  2/  3 1028.8R
RAPPAHANNOCK LGT 1048          150/  9/ 10 1030.0R
YORK RVR RNG VA  1048   46     210/  9/ 11 1028.7R
YORKTOWN VA      1048   41 49  190/  3/  4 1029.2R
JAMESTOWN VA     1100   42 53   90/  2/  4   N/A     0
DOMINION TERM VA 1048   45     160/  5/  6 1029.4R
KIPTOPEKE VA     1048      49  150/  5/  5   N/A
CHES BAY BRIDGE  1048   45 49  190/  9/  9 1029.4R
CAPE HENRY VA    1048   43     170/  7/  8   N/A
WILLOUBY STN VA  1048   45     170/  8/  9 1030.0R
S CRANEY ISL VA  1048   43     170/  4/  5 1029.3R
CAPE HENRY BUOY  1042      48                N/A     2/ 9
OFFSHORE WE BUOY 1051      48                N/A     2/ 9
64NM E OF VA BCH 1050   47 48   90/  4/  4 1030.1R   3/ 9   3/ 9
DUCK PIER NC     1048   47 49  120/  9/  9 1029.3R
44100 DUCK FRF   1035      49                N/A     2/ 9
44056 DUCK FRF   1030      49                N/A     2/ 9
OREGON INLET NC  1048           70/  3/  5   N/A
HATTERAS NC      1048   49 60   50/  3/  5 1029.1R
DIAMOND SHLS NC  1050   57 71   40/  6/ 10 1029.4R   3/ 8   3/ 8
CAPE LOOKOUT NC  1100   57      60/  6/  7 1028.9R
$$




USA.gov is the U.S. government's official web portal to all federal, state and local government web resources and services.